This demonstration page uses our WeatherBlox Daily Observations layout. Learn more.

Left ArrowRight Arrow

Hourly Observations for September 7, 2019

Temp ( °F °C ) Dew Point ( °F °C ) Humidity (%) Winds ( mph kmh ) Pressure ( in mb ) Visibility ( mi km ) Precip ( " mm )
12:59 am 00:59 Partly Cloudy 66 18.9 28 -2.2 24 24 WNW 8 13 29.83 1010 10 16 0.00 0.00
1:59 am 01:59 Partly Cloudy 67 19.4 28 -2.2 23 23 NW 6 9 29.83 1010 10 16 0.00 0.00
2:59 am 02:59 Partly Cloudy 67 19.4 28 -2.2 23 23 NW 6 9 29.83 1010 10 16 0.00 0.00
3:59 am 03:59 Mostly Cloudy 67 19.4 28 -2.2 23 23 NW 5 7 29.84 1010 10 16 0.00 0.00
4:59 am 04:59 Mostly Cloudy 66 18.9 63 17.2 90 90 Calm 29.85 1011 10 16 0.00 0.00
5:59 am 05:59 Mostly Cloudy 64 17.8 62 16.7 93 93 Calm 29.86 1011 7 11 0.00 0.00
6:59 am 06:59 Mostly Sunny 65 18.3 63 17.2 93 93 Calm 29.88 1012 7 11 0.00 0.00
7:59 am 07:59 Mostly Sunny 69 20.6 65 18.3 87 87 Calm 29.90 1013 7 11 0.00 0.00
8:59 am 08:59 Mostly Sunny 72 22.2 65 18.3 79 79 NW 3 6 29.91 1013 10 16 0.00 0.00
9:59 am 09:59 Mostly Sunny 74 23.3 66 18.9 76 76 Calm 29.92 1013 10 16 0.00 0.00
10:59 am 10:59 Sunny 77 25 67 19.4 71 71 WNW 7 11 29.93 1013 10 16 0.00 0.00
11:59 am 11:59 Mostly Sunny 78 25.6 64 17.8 62 62 VRB 3 6 29.92 1013 10 16 0.00 0.00
12:59 pm 12:59 Mostly Sunny 79 26.1 62 16.7 56 56 VRB 3 6 29.91 1013 10 16 0.00 0.00
1:59 pm 13:59 Mostly Sunny 82 27.8 63 17.2 53 53 NW 7 11 29.90 1013 10 16 0.00 0.00
2:59 pm 14:59 Partly Cloudy 82 27.8 65 18.3 56 56 NW 8 13 29.89 1012 10 16 0.00 0.00
3:59 pm 15:59 Partly Cloudy 83 28.3 66 18.9 57 57 NNE 9 15 29.88 1012 10 16 0.00 0.00
4:59 pm 16:59 Partly Cloudy 80 26.7 66 18.9 62 62 E 7 11 29.89 1012 10 16 0.00 0.00
5:59 pm 17:59 Mostly Sunny 79 26.1 68 20 69 69 ESE 7 11 29.90 1013 10 16 0.00 0.00
6:59 pm 18:59 Partly Cloudy 76 24.4 67 19.4 74 74 SE 6 9 29.91 1013 10 16 0.00 0.00
7:59 pm 19:59 Partly Cloudy 74 23.3 67 19.4 79 79 SE 6 9 29.93 1014 10 16 0.00 0.00
8:59 pm 20:59 Mostly Cloudy 73 22.8 67 19.4 81 81 SSE 8 13 29.96 1015 10 16 0.00 0.00
9:59 pm 21:59 Partly Cloudy 72 22.2 65 18.3 79 79 SE 6 9 29.97 1015 10 16 0.00 0.00
10:59 pm 22:59 Mostly Clear 72 22.2 66 18.9 82 82 SSE 7 11 29.98 1015 10 16 0.00 0.00
11:59 pm 23:59 Mostly Clear 71 21.7 67 19.4 87 87 SE 5 7 29.98 1015 10 16 0.00 0.00

Powered by AerisWeather